Time,TemperatureF,DewpointF,PressureIn,WindDirection,WindDirectionDegrees,WindSpeedMPH,WindSpeedGustMPH,Humidity,HourlyPrecipIn,Conditions,Clouds,dailyrainin,SoftwareType,DateUTC
2013-02-07 00:07:00,22.6,20.7,30.63,ESE,121,0.0,4.0,92,0.00,,,0.00,meteohub,2013-02-07 07:07:00,
2013-02-07 00:12:00,22.1,19.4,30.63,NW,309,1.0,4.0,89,0.00,,,0.00,meteohub,2013-02-07 07:12:00,
2013-02-07 00:17:00,21.6,18.9,30.63,NW,309,0.0,4.0,89,0.00,,,0.00,meteohub,2013-02-07 07:17:00,
2013-02-07 00:22:00,21.4,18.9,30.63,NW,309,0.0,4.0,90,0.00,,,0.00,meteohub,2013-02-07 07:22:00,
2013-02-07 00:27:00,21.4,19.2,30.63,NW,309,0.0,2.0,91,0.00,,,0.00,meteohub,2013-02-07 07:27:00,
2013-02-07 00:32:00,21.4,19.4,30.64,NW,309,0.0,2.0,92,0.00,,,0.00,meteohub,2013-02-07 07:32:00,
2013-02-07 00:37:00,21.6,19.6,30.64,WNW,291,0.0,2.0,92,0.00,,,0.00,meteohub,2013-02-07 07:37:00,
2013-02-07 00:42:00,21.6,19.6,30.63,WNW,286,0.0,2.0,92,0.00,,,0.00,meteohub,2013-02-07 07:42:00,
2013-02-07 00:47:00,21.7,19.8,30.63,WNW,286,0.0,2.0,92,0.00,,,0.00,meteohub,2013-02-07 07:47:00,
2013-02-07 00:52:00,21.9,19.9,30.63,West,270,0.0,1.0,92,0.00,,,0.00,meteohub,2013-02-07 07:52:00,
2013-02-07 00:57:00,22.1,20.1,30.63,SSE,161,2.0,3.0,92,0.00,,,0.00,meteohub,2013-02-07 07:57:00,
2013-02-07 01:02:00,22.1,19.9,30.63,SSE,155,0.0,4.0,91,0.00,,,0.00,meteohub,2013-02-07 08:02:00,
2013-02-07 01:07:00,22.1,19.9,30.62,SSE,155,2.0,4.0,91,0.00,,,0.00,meteohub,2013-02-07 08:07:00,
2013-02-07 01:12:00,22.3,20.1,30.62,SSE,155,0.0,4.0,91,0.00,,,0.00,meteohub,2013-02-07 08:12:00,
2013-02-07 01:17:00,22.5,20.5,30.62,SSE,155,0.0,3.0,92,0.00,,,0.00,meteohub,2013-02-07 08:17:00,
2013-02-07 01:22:00,22.5,20.3,30.62,SSE,156,2.0,3.0,91,0.00,,,0.00,meteohub,2013-02-07 08:22:00,
2013-02-07 01:27:00,22.5,19.9,30.62,SSE,154,2.0,5.0,90,0.00,,,0.00,meteohub,2013-02-07 08:27:00,
2013-02-07 01:32:00,22.6,20.1,30.62,SSE,153,0.0,5.0,90,0.00,,,0.00,meteohub,2013-02-07 08:32:00,
2013-02-07 01:37:00,22.6,20.5,30.62,SSE,153,0.0,5.0,91,0.00,,,0.00,meteohub,2013-02-07 08:37:00,
2013-02-07 01:42:00,22.8,20.7,30.62,SSE,153,0.0,5.0,91,0.00,,,0.00,meteohub,2013-02-07 08:42:00,
2013-02-07 01:47:00,23.0,20.8,30.62,SSE,153,0.0,2.0,91,0.00,,,0.00,meteohub,2013-02-07 08:47:00,
2013-02-07 01:52:00,23.0,20.3,30.61,SSE,153,1.0,2.0,89,0.00,,,0.00,meteohub,2013-02-07 08:52:00,
2013-02-07 01:57:00,22.6,19.4,30.62,SSE,153,0.0,3.0,87,0.00,,,0.00,meteohub,2013-02-07 08:57:00,
2013-02-07 02:02:00,21.9,18.3,30.62,SSE,153,0.0,3.0,86,0.00,,,0.00,meteohub,2013-02-07 09:02:00,
2013-02-07 02:07:00,21.6,18.5,30.62,SSE,153,0.0,3.0,88,0.00,,,0.00,meteohub,2013-02-07 09:07:00,
2013-02-07 02:12:00,21.4,18.3,30.62,SSE,153,0.0,1.0,88,0.00,,,0.00,meteohub,2013-02-07 09:12:00,
2013-02-07 02:17:00,21.0,18.3,30.62,SSE,153,0.0,2.0,89,0.00,,,0.00,meteohub,2013-02-07 09:17:00,
2013-02-07 02:22:00,20.8,18.3,30.62,SSE,153,0.0,2.0,90,0.00,,,0.00,meteohub,2013-02-07 09:22:00,
2013-02-07 02:27:00,20.8,18.3,30.62,SSE,153,0.0,2.0,90,0.00,,,0.00,meteohub,2013-02-07 09:27:00,
2013-02-07 02:37:00,20.5,18.0,30.62,SSE,153,0.0,0.0,90,0.00,,,0.00,meteohub,2013-02-07 09:37:00,
2013-02-07 02:42:00,20.1,17.6,30.62,SSE,153,0.0,0.0,90,0.00,,,0.00,meteohub,2013-02-07 09:42:00,
2013-02-07 02:47:00,19.9,17.4,30.61,SSE,153,0.0,0.0,90,0.00,,,0.00,meteohub,2013-02-07 09:47:00,
2013-02-07 02:52:00,19.9,17.4,30.61,SSE,153,0.0,0.0,90,0.00,,,0.00,meteohub,2013-02-07 09:52:00,
2013-02-07 02:57:00,19.9,17.8,30.61,SSE,153,0.0,0.0,91,0.00,,,0.00,meteohub,2013-02-07 09:57:00,
2013-02-07 03:02:00,19.9,18.0,30.61,SSE,153,0.0,0.0,92,0.00,,,0.00,meteohub,2013-02-07 10:02:00,
2013-02-07 03:07:00,20.1,18.5,30.61,SSE,153,0.0,1.0,93,0.00,,,0.00,meteohub,2013-02-07 10:07:00,
2013-02-07 03:12:00,20.1,18.1,30.61,SSE,153,0.0,1.0,92,0.00,,,0.00,meteohub,2013-02-07 10:12:00,
2013-02-07 03:17:00,19.8,17.2,30.61,West,273,2.0,3.0,90,0.00,,,0.00,meteohub,2013-02-07 10:17:00,
2013-02-07 03:22:00,19.0,16.5,30.61,WNW,298,0.0,3.0,90,0.00,,,0.00,meteohub,2013-02-07 10:22:00,
2013-02-07 03:27:00,18.9,16.7,30.60,WNW,292,2.0,3.0,91,0.00,,,0.00,meteohub,2013-02-07 10:27:00,
2013-02-07 03:32:00,18.1,15.4,30.60,WSW,252,0.0,3.0,89,0.00,,,0.00,meteohub,2013-02-07 10:32:00,
2013-02-07 03:37:00,18.0,15.4,30.60,WSW,252,0.0,3.0,90,0.00,,,0.00,meteohub,2013-02-07 10:37:00,
2013-02-07 03:42:00,18.0,15.8,30.60,WSW,252,0.0,3.0,91,0.00,,,0.00,meteohub,2013-02-07 10:42:00,
2013-02-07 03:47:00,17.6,15.4,30.60,WSW,252,0.0,0.0,91,0.00,,,0.00,meteohub,2013-02-07 10:47:00,
2013-02-07 03:52:00,17.2,15.1,30.60,WSW,252,0.0,0.0,91,0.00,,,0.00,meteohub,2013-02-07 10:52:00,
2013-02-07 03:57:00,17.1,14.7,30.60,WSW,252,0.0,1.0,90,0.00,,,0.00,meteohub,2013-02-07 10:57:00,
2013-02-07 04:02:00,16.5,14.4,30.60,WSW,252,0.0,1.0,91,0.00,,,0.00,meteohub,2013-02-07 11:02:00,
2013-02-07 04:07:00,16.2,14.0,30.60,WSW,252,0.0,1.0,91,0.00,,,0.00,meteohub,2013-02-07 11:07:00,
2013-02-07 04:12:00,16.0,13.8,30.60,WSW,252,1.0,1.0,91,0.00,,,0.00,meteohub,2013-02-07 11:12:00,
2013-02-07 04:17:00,14.4,11.1,30.60,WSW,252,0.0,2.0,87,0.00,,,0.00,meteohub,2013-02-07 11:17:00,
2013-02-07 04:22:00,13.3,10.2,30.60,WSW,252,0.0,2.0,87,0.00,,,0.00,meteohub,2013-02-07 11:22:00,
2013-02-07 04:27:00,12.6,9.7,30.60,WSW,252,0.0,2.0,88,0.00,,,0.00,meteohub,2013-02-07 11:27:00,
2013-02-07 04:32:00,12.2,9.5,30.61,WSW,252,0.0,0.0,89,0.00,,,0.00,meteohub,2013-02-07 11:32:00,
2013-02-07 04:37:00,11.8,9.5,30.61,WSW,252,0.0,0.0,90,0.00,,,0.00,meteohub,2013-02-07 11:37:00,
2013-02-07 04:42:00,11.8,9.7,30.61,WSW,252,1.0,1.0,91,0.00,,,0.00,meteohub,2013-02-07 11:42:00,
2013-02-07 04:47:00,12.4,10.6,30.61,WSW,252,0.0,1.0,92,0.00,,,0.00,meteohub,2013-02-07 11:47:00,
2013-02-07 04:52:00,12.2,10.0,30.61,WSW,252,2.0,2.0,91,0.00,,,0.00,meteohub,2013-02-07 11:52:00,
2013-02-07 04:57:00,11.1,8.6,30.62,SW,234,1.0,2.0,89,0.00,,,0.00,meteohub,2013-02-07 11:57:00,
2013-02-07 05:02:00,10.2,7.3,30.62,SW,234,0.0,3.0,88,0.00,,,0.00,meteohub,2013-02-07 12:02:00,
2013-02-07 05:07:00,9.9,7.3,30.62,SW,233,0.0,3.0,89,0.00,,,0.00,meteohub,2013-02-07 12:07:00,
2013-02-07 05:17:00,10.0,8.2,30.62,SW,233,0.0,2.0,92,0.00,,,0.00,meteohub,2013-02-07 12:17:00,
2013-02-07 05:22:00,9.9,7.7,30.61,SW,233,0.0,1.0,91,0.00,,,0.00,meteohub,2013-02-07 12:22:00,
2013-02-07 05:27:00,8.4,5.4,30.62,SW,233,0.0,2.0,87,0.00,,,0.00,meteohub,2013-02-07 12:27:00,
2013-02-07 05:32:00,7.5,4.6,30.61,SW,233,0.0,2.0,88,0.00,,,0.00,meteohub,2013-02-07 12:32:00,
2013-02-07 05:37:00,7.9,5.7,30.62,SW,233,0.0,2.0,91,0.00,,,0.00,meteohub,2013-02-07 12:37:00,
2013-02-07 05:42:00,7.9,5.7,30.62,SW,233,1.0,1.0,91,0.00,,,0.00,meteohub,2013-02-07 12:42:00,
2013-02-07 05:47:00,7.3,4.8,30.62,SW,233,0.0,2.0,89,0.00,,,0.00,meteohub,2013-02-07 12:47:00,
2013-02-07 05:52:00,7.3,5.2,30.62,SW,233,0.0,2.0,91,0.00,,,0.00,meteohub,2013-02-07 12:52:00,
2013-02-07 05:57:00,7.9,6.1,30.62,SW,233,0.0,2.0,92,0.00,,,0.00,meteohub,2013-02-07 12:57:00,
2013-02-07 06:02:00,8.2,6.4,30.62,SW,233,0.0,0.0,92,0.00,,,0.00,meteohub,2013-02-07 13:02:00,
2013-02-07 06:07:00,7.7,5.2,30.62,SW,233,0.0,0.0,89,0.00,,,0.00,meteohub,2013-02-07 13:07:00,
2013-02-07 06:12:00,7.0,4.1,30.63,SW,233,0.0,0.0,88,0.00,,,0.00,meteohub,2013-02-07 13:12:00,
2013-02-07 06:17:00,6.6,3.7,30.63,SW,233,0.0,0.0,88,0.00,,,0.00,meteohub,2013-02-07 13:17:00,
2013-02-07 06:22:00,6.4,3.7,30.63,SW,233,0.0,0.0,88,0.00,,,0.00,meteohub,2013-02-07 13:22:00,
2013-02-07 06:27:00,5.9,3.2,30.63,SW,224,0.0,0.0,88,0.00,,,0.00,meteohub,2013-02-07 13:27:00,
2013-02-07 06:32:00,5.4,2.3,30.63,SW,224,0.0,2.0,87,0.00,,,0.00,meteohub,2013-02-07 13:32:00,
2013-02-07 06:37:00,5.0,2.3,30.64,SW,223,0.0,2.0,88,0.00,,,0.00,meteohub,2013-02-07 13:37:00,
2013-02-07 06:47:00,5.0,2.7,30.64,SW,224,0.0,0.0,90,0.00,,,0.00,meteohub,2013-02-07 13:47:00,
2013-02-07 06:57:00,4.8,1.8,30.65,SW,224,0.0,1.0,87,0.00,,,0.00,meteohub,2013-02-07 13:57:00,
2013-02-07 07:02:00,3.6,0.1,30.65,SW,224,0.0,1.0,85,0.00,,,0.00,meteohub,2013-02-07 14:02:00,
2013-02-07 07:07:00,3.4,0.7,30.65,SW,224,0.0,1.0,88,0.00,,,0.00,meteohub,2013-02-07 14:07:00,
2013-02-07 07:12:00,3.4,0.9,30.65,SW,224,0.0,1.0,89,0.00,,,0.00,meteohub,2013-02-07 14:12:00,
2013-02-07 07:17:00,3.6,1.2,30.66,SW,224,0.0,0.0,90,0.00,,,0.00,meteohub,2013-02-07 14:17:00,
2013-02-07 07:22:00,2.7,-0.6,30.66,SW,224,0.0,1.0,86,0.00,,,0.00,meteohub,2013-02-07 14:22:00,
2013-02-07 07:27:00,2.3,-0.9,30.66,SW,224,0.0,1.0,86,0.00,,,0.00,meteohub,2013-02-07 14:27:00,
2013-02-07 07:32:00,1.9,-1.3,30.67,SW,224,0.0,1.0,86,0.00,,,0.00,meteohub,2013-02-07 14:32:00,
2013-02-07 07:37:00,1.9,-0.8,30.67,SW,224,0.0,0.0,88,0.00,,,0.00,meteohub,2013-02-07 14:37:00,
2013-02-07 07:42:00,2.5,0.1,30.67,SW,224,0.0,0.0,90,0.00,,,0.00,meteohub,2013-02-07 14:42:00,
2013-02-07 07:47:00,3.0,0.7,30.67,SW,215,0.0,0.0,90,0.00,,,0.00,meteohub,2013-02-07 14:47:00,
2013-02-07 07:52:00,2.5,-0.9,30.68,SSW,196,0.0,2.0,85,0.00,,,0.00,meteohub,2013-02-07 14:52:00,
2013-02-07 07:57:00,2.3,-0.4,30.68,SSE,149,1.0,2.0,88,0.00,,,0.00,meteohub,2013-02-07 14:57:00,
2013-02-07 08:02:00,2.8,0.5,30.68,SSE,150,0.0,2.0,90,0.00,,,0.00,meteohub,2013-02-07 15:02:00,
2013-02-07 08:07:00,2.7,-0.4,30.69,SSE,155,0.0,2.0,87,0.00,,,0.00,meteohub,2013-02-07 15:07:00,
2013-02-07 08:12:00,2.8,0.3,30.68,SSE,155,0.0,2.0,89,0.00,,,0.00,meteohub,2013-02-07 15:12:00,
2013-02-07 08:17:00,4.3,2.3,30.69,SSE,155,0.0,2.0,91,0.00,,,0.00,meteohub,2013-02-07 15:17:00,
2013-02-07 08:22:00,5.0,2.7,30.69,SSE,155,0.0,1.0,90,0.00,,,0.00,meteohub,2013-02-07 15:22:00,
2013-02-07 08:27:00,5.4,2.8,30.69,SSE,155,0.0,1.0,89,0.00,,,0.00,meteohub,2013-02-07 15:27:00,
2013-02-07 08:32:00,6.1,3.7,30.69,SSE,155,0.0,1.0,90,0.00,,,0.00,meteohub,2013-02-07 15:32:00,
2013-02-07 08:42:00,6.6,3.7,30.69,West,275,2.0,2.0,88,0.00,,,0.00,meteohub,2013-02-07 15:42:00,
2013-02-07 08:47:00,6.6,3.7,30.69,West,275,0.0,2.0,88,0.00,,,0.00,meteohub,2013-02-07 15:47:00,
2013-02-07 08:52:00,7.0,4.5,30.69,West,275,0.0,2.0,89,0.00,,,0.00,meteohub,2013-02-07 15:52:00,
2013-02-07 09:02:00,8.2,5.7,30.70,West,275,1.0,2.0,89,0.00,,,0.00,meteohub,2013-02-07 16:02:00,
2013-02-07 09:07:00,8.6,6.1,30.70,West,278,1.0,2.0,89,0.00,,,0.00,meteohub,2013-02-07 16:07:00,
2013-02-07 09:12:00,9.1,6.6,30.70,West,278,0.0,3.0,89,0.00,,,0.00,meteohub,2013-02-07 16:12:00,
2013-02-07 09:17:00,10.2,7.9,30.70,West,278,0.0,3.0,90,0.00,,,0.00,meteohub,2013-02-07 16:17:00,
2013-02-07 09:22:00,11.5,9.3,30.70,West,278,0.0,3.0,91,0.00,,,0.00,meteohub,2013-02-07 16:22:00,
2013-02-07 09:32:00,13.6,10.9,30.70,West,278,1.0,2.0,89,0.00,,,0.00,meteohub,2013-02-07 16:32:00,
2013-02-07 09:37:00,13.5,9.9,30.70,West,278,2.0,2.0,85,0.00,,,0.00,meteohub,2013-02-07 16:37:00,
2013-02-07 09:42:00,13.3,9.9,30.70,West,278,0.0,2.0,86,0.00,,,0.00,meteohub,2013-02-07 16:42:00,
2013-02-07 09:47:00,13.6,10.6,30.70,West,278,0.0,2.0,87,0.00,,,0.00,meteohub,2013-02-07 16:47:00,
2013-02-07 09:52:00,14.4,11.1,30.70,West,278,0.0,2.0,87,0.00,,,0.00,meteohub,2013-02-07 16:52:00,
2013-02-07 09:57:00,15.1,11.7,30.69,West,278,0.0,2.0,86,0.00,,,0.00,meteohub,2013-02-07 16:57:00,
2013-02-07 10:02:00,16.0,11.5,30.69,West,278,0.0,1.0,82,0.00,,,0.00,meteohub,2013-02-07 17:02:00,
2013-02-07 10:07:00,16.9,12.6,30.69,West,278,0.0,2.0,83,0.00,,,0.00,meteohub,2013-02-07 17:07:00,
2013-02-07 10:12:00,18.5,13.6,30.69,West,278,0.0,2.0,81,0.00,,,0.00,meteohub,2013-02-07 17:12:00,
2013-02-07 10:17:00,19.9,13.6,30.69,West,277,2.0,2.0,76,0.00,,,0.00,meteohub,2013-02-07 17:17:00,
2013-02-07 10:22:00,20.5,12.9,30.69,West,277,0.0,2.0,72,0.00,,,0.00,meteohub,2013-02-07 17:22:00,
2013-02-07 10:27:00,20.8,13.6,30.69,West,277,0.0,2.0,73,0.00,,,0.00,meteohub,2013-02-07 17:27:00,
2013-02-07 10:32:00,21.2,13.6,30.69,West,277,2.0,2.0,72,0.00,,,0.00,meteohub,2013-02-07 17:32:00,
2013-02-07 10:37:00,20.8,13.6,30.69,West,277,2.0,3.0,73,0.00,,,0.00,meteohub,2013-02-07 17:37:00,
2013-02-07 10:42:00,20.7,13.6,30.68,West,277,3.0,4.0,74,0.00,,,0.00,meteohub,2013-02-07 17:42:00,
2013-02-07 10:47:00,20.5,14.4,30.68,West,277,1.0,4.0,77,0.00,,,0.00,meteohub,2013-02-07 17:47:00,
2013-02-07 10:57:00,21.2,15.4,30.68,West,277,3.0,4.0,78,0.00,,,0.00,meteohub,2013-02-07 17:57:00,
2013-02-07 11:02:00,21.6,16.0,30.68,West,277,2.0,3.0,79,0.00,,,0.00,meteohub,2013-02-07 18:02:00,
2013-02-07 11:07:00,21.6,16.0,30.67,West,277,2.0,4.0,79,0.00,,,0.00,meteohub,2013-02-07 18:07:00,
2013-02-07 11:12:00,21.9,16.7,30.67,West,277,1.0,4.0,80,0.00,,,0.00,meteohub,2013-02-07 18:12:00,
2013-02-07 11:17:00,22.5,16.9,30.67,West,277,1.0,4.0,79,0.00,,,0.00,meteohub,2013-02-07 18:17:00,
2013-02-07 11:22:00,23.2,17.4,30.66,West,277,2.0,4.0,78,0.00,,,0.00,meteohub,2013-02-07 18:22:00,
2013-02-07 11:27:00,23.4,17.2,30.66,West,277,2.0,4.0,77,0.00,,,0.00,meteohub,2013-02-07 18:27:00,
2013-02-07 11:32:00,23.9,17.8,30.66,WNW,293,2.0,4.0,77,0.00,,,0.00,meteohub,2013-02-07 18:32:00,
2013-02-07 11:37:00,24.3,18.1,30.66,NW,309,3.0,5.0,77,0.00,,,0.00,meteohub,2013-02-07 18:37:00,
2013-02-07 11:42:00,24.4,18.3,30.66,NW,316,3.0,6.0,77,0.00,,,0.00,meteohub,2013-02-07 18:42:00,
2013-02-07 11:52:00,24.6,18.1,30.65,NW,313,7.0,7.0,76,0.00,,,0.00,meteohub,2013-02-07 18:52:00,
2013-02-07 12:02:00,25.0,18.1,30.64,NW,315,4.0,7.0,75,0.00,,,0.00,meteohub,2013-02-07 19:02:00,
2013-02-07 12:07:00,25.3,18.1,30.64,NW,315,5.0,7.0,74,0.00,,,0.00,meteohub,2013-02-07 19:07:00,
2013-02-07 12:12:00,25.5,18.3,30.64,NW,313,3.0,6.0,74,0.00,,,0.00,meteohub,2013-02-07 19:12:00,
2013-02-07 12:22:00,25.5,17.8,30.63,NW,320,3.0,6.0,72,0.00,,,0.00,meteohub,2013-02-07 19:22:00,
2013-02-07 12:27:00,25.9,18.5,30.63,NW,320,3.0,6.0,73,0.00,,,0.00,meteohub,2013-02-07 19:27:00,
2013-02-07 12:32:00,26.2,18.9,30.62,NW,306,3.0,6.0,73,0.00,,,0.00,meteohub,2013-02-07 19:32:00,
2013-02-07 12:37:00,26.6,18.9,30.62,NW,309,3.0,5.0,72,0.00,,,0.00,meteohub,2013-02-07 19:37:00,
2013-02-07 12:42:00,26.8,18.7,30.62,WNW,290,3.0,4.0,71,0.00,,,0.00,meteohub,2013-02-07 19:42:00,
2013-02-07 12:47:00,26.8,18.7,30.62,WNW,288,3.0,5.0,71,0.00,,,0.00,meteohub,2013-02-07 19:47:00,
2013-02-07 12:52:00,27.0,18.9,30.61,WNW,295,3.0,5.0,71,0.00,,,0.00,meteohub,2013-02-07 19:52:00,
2013-02-07 12:57:00,27.1,18.3,30.61,WNW,300,2.0,5.0,69,0.00,,,0.00,meteohub,2013-02-07 19:57:00,
2013-02-07 13:02:00,27.7,19.2,30.61,WNW,300,2.0,4.0,70,0.00,,,0.00,meteohub,2013-02-07 20:02:00,
2013-02-07 13:12:00,28.6,18.7,30.60,WNW,299,3.0,3.0,66,0.00,,,0.00,meteohub,2013-02-07 20:12:00,
2013-02-07 13:17:00,28.8,18.9,30.60,WNW,299,2.0,4.0,66,0.00,,,0.00,meteohub,2013-02-07 20:17:00,
2013-02-07 13:22:00,28.8,18.9,30.60,WNW,284,4.0,5.0,66,0.00,,,0.00,meteohub,2013-02-07 20:22:00,
2013-02-07 13:27:00,28.6,18.7,30.59,West,276,5.0,5.0,66,0.00,,,0.00,meteohub,2013-02-07 20:27:00,
2013-02-07 13:32:00,28.4,18.1,30.59,West,275,3.0,5.0,65,0.00,,,0.00,meteohub,2013-02-07 20:32:00,
2013-02-07 13:37:00,28.6,18.7,30.58,WSW,257,4.0,5.0,66,0.00,,,0.00,meteohub,2013-02-07 20:37:00,
2013-02-07 13:42:00,28.8,18.9,30.58,WSW,257,3.0,5.0,66,0.00,,,0.00,meteohub,2013-02-07 20:42:00,
2013-02-07 13:47:00,28.9,19.0,30.58,WSW,254,3.0,5.0,66,0.00,,,0.00,meteohub,2013-02-07 20:47:00,
2013-02-07 13:52:00,29.1,18.9,30.58,West,265,4.0,5.0,65,0.00,,,0.00,meteohub,2013-02-07 20:52:00,
2013-02-07 13:57:00,29.5,19.6,30.58,WNW,294,3.0,5.0,66,0.00,,,0.00,meteohub,2013-02-07 20:57:00,
2013-02-07 14:02:00,29.8,19.9,30.58,WNW,294,1.0,5.0,66,0.00,,,0.00,meteohub,2013-02-07 21:02:00,
2013-02-07 14:07:00,30.4,19.6,30.57,NW,305,3.0,5.0,64,0.00,,,0.00,meteohub,2013-02-07 21:07:00,
2013-02-07 14:12:00,30.6,19.4,30.57,NW,304,4.0,4.0,63,0.00,,,0.00,meteohub,2013-02-07 21:12:00,
2013-02-07 14:17:00,30.7,19.6,30.57,NW,304,2.0,4.0,63,0.00,,,0.00,meteohub,2013-02-07 21:17:00,
2013-02-07 14:22:00,31.3,19.0,30.57,NW,304,2.0,4.0,60,0.00,,,0.00,meteohub,2013-02-07 21:22:00,
2013-02-07 14:27:00,31.5,18.9,30.56,NW,304,1.0,4.0,59,0.00,,,0.00,meteohub,2013-02-07 21:27:00,
2013-02-07 14:32:00,31.6,19.4,30.56,NW,304,3.0,3.0,60,0.00,,,0.00,meteohub,2013-02-07 21:32:00,
2013-02-07 14:37:00,31.6,19.4,30.56,NW,304,4.0,4.0,60,0.00,,,0.00,meteohub,2013-02-07 21:37:00,
2013-02-07 14:42:00,31.3,19.0,30.56,NW,304,3.0,5.0,60,0.00,,,0.00,meteohub,2013-02-07 21:42:00,
2013-02-07 14:47:00,31.5,18.3,30.56,NW,306,1.0,5.0,58,0.00,,,0.00,meteohub,2013-02-07 21:47:00,
2013-02-07 14:52:00,31.5,17.6,30.56,NW,306,3.0,5.0,56,0.00,,,0.00,meteohub,2013-02-07 21:52:00,
2013-02-07 15:02:00,31.8,18.3,30.55,NW,306,3.0,4.0,57,0.00,,,0.00,meteohub,2013-02-07 22:02:00,
2013-02-07 15:07:00,31.8,19.0,30.55,NW,306,3.0,4.0,59,0.00,,,0.00,meteohub,2013-02-07 22:07:00,
2013-02-07 15:12:00,31.6,18.5,30.55,NW,306,4.0,4.0,58,0.00,,,0.00,meteohub,2013-02-07 22:12:00,
2013-02-07 15:17:00,31.5,18.3,30.55,NW,306,1.0,4.0,58,0.00,,,0.00,meteohub,2013-02-07 22:17:00,
2013-02-07 15:22:00,31.6,18.1,30.54,NW,306,3.0,4.0,57,0.00,,,0.00,meteohub,2013-02-07 22:22:00,
2013-02-07 15:32:00,32.2,18.3,30.54,NW,306,3.0,4.0,56,0.00,,,0.00,meteohub,2013-02-07 22:32:00,
2013-02-07 15:37:00,32.2,18.3,30.54,NW,311,3.0,4.0,56,0.00,,,0.00,meteohub,2013-02-07 22:37:00,
2013-02-07 15:42:00,32.0,18.1,30.53,NW,311,3.0,5.0,56,0.00,,,0.00,meteohub,2013-02-07 22:42:00,
2013-02-07 15:47:00,31.8,18.7,30.53,NW,311,3.0,5.0,58,0.00,,,0.00,meteohub,2013-02-07 22:47:00,
2013-02-07 15:52:00,31.3,19.0,30.53,NW,311,2.0,5.0,60,0.00,,,0.00,meteohub,2013-02-07 22:52:00,
2013-02-07 15:57:00,30.9,19.4,30.53,NW,311,2.0,5.0,62,0.00,,,0.00,meteohub,2013-02-07 22:57:00,
2013-02-07 16:02:00,30.7,19.6,30.53,NW,311,1.0,4.0,63,0.00,,,0.00,meteohub,2013-02-07 23:02:00,
2013-02-07 16:07:00,30.6,19.4,30.53,NW,312,2.0,4.0,63,0.00,,,0.00,meteohub,2013-02-07 23:07:00,
2013-02-07 16:12:00,30.6,18.7,30.53,NW,312,1.0,4.0,61,0.00,,,0.00,meteohub,2013-02-07 23:12:00,
2013-02-07 16:17:00,30.6,19.4,30.53,NW,312,0.0,4.0,63,0.00,,,0.00,meteohub,2013-02-07 23:17:00,
2013-02-07 16:22:00,30.4,18.5,30.53,NW,312,3.0,4.0,61,0.00,,,0.00,meteohub,2013-02-07 23:22:00,
2013-02-07 16:27:00,29.8,18.9,30.53,NW,312,1.0,3.0,63,0.00,,,0.00,meteohub,2013-02-07 23:27:00,
2013-02-07 16:32:00,29.7,18.3,30.53,NW,312,2.0,3.0,62,0.00,,,0.00,meteohub,2013-02-07 23:32:00,
2013-02-07 16:37:00,28.8,17.8,30.53,NW,312,3.0,4.0,63,0.00,,,0.00,meteohub,2013-02-07 23:37:00,
2013-02-07 16:42:00,28.0,17.4,30.53,NW,312,3.0,4.0,64,0.00,,,0.00,meteohub,2013-02-07 23:42:00,
2013-02-07 16:47:00,27.3,17.8,30.54,NW,312,3.0,4.0,67,0.00,,,0.00,meteohub,2013-02-07 23:47:00,
2013-02-07 16:52:00,27.3,17.8,30.54,NW,312,2.0,4.0,67,0.00,,,0.00,meteohub,2013-02-07 23:52:00,
2013-02-07 16:57:00,27.1,17.6,30.54,NW,312,2.0,4.0,67,0.00,,,0.00,meteohub,2013-02-07 23:57:00,
2013-02-07 17:02:00,26.6,16.7,30.54,NW,312,1.0,4.0,66,0.00,,,0.00,meteohub,2013-02-08 00:02:00,
2013-02-07 17:07:00,26.2,16.7,30.54,NW,312,2.0,3.0,67,0.00,,,0.00,meteohub,2013-02-08 00:07:00,
2013-02-07 17:12:00,26.2,17.1,30.54,NW,312,1.0,3.0,68,0.00,,,0.00,meteohub,2013-02-08 00:12:00,
2013-02-07 17:17:00,25.5,16.5,30.54,NW,312,0.0,3.0,68,0.00,,,0.00,meteohub,2013-02-08 00:17:00,
2013-02-07 17:22:00,25.2,16.3,30.55,NW,312,0.0,3.0,69,0.00,,,0.00,meteohub,2013-02-08 00:22:00,
2013-02-07 17:27:00,24.4,15.4,30.54,NW,312,2.0,2.0,68,0.00,,,0.00,meteohub,2013-02-08 00:27:00,
2013-02-07 17:32:00,23.0,14.4,30.55,NW,312,0.0,3.0,69,0.00,,,0.00,meteohub,2013-02-08 00:32:00,
2013-02-07 17:37:00,21.7,13.1,30.55,NW,312,2.0,3.0,69,0.00,,,0.00,meteohub,2013-02-08 00:37:00,
2013-02-07 17:42:00,19.9,12.4,30.55,NW,312,1.0,3.0,72,0.00,,,0.00,meteohub,2013-02-08 00:42:00,
2013-02-07 17:47:00,18.7,11.5,30.55,NW,312,1.0,3.0,73,0.00,,,0.00,meteohub,2013-02-08 00:47:00,
2013-02-07 17:52:00,17.1,10.8,30.55,SSW,207,0.0,3.0,76,0.00,,,0.00,meteohub,2013-02-08 00:52:00,
2013-02-07 17:57:00,16.5,11.5,30.55,SSW,207,1.0,4.0,80,0.00,,,0.00,meteohub,2013-02-08 00:57:00,
2013-02-07 18:02:00,16.3,11.8,30.56,SSW,207,1.0,4.0,82,0.00,,,0.00,meteohub,2013-02-08 01:02:00,
2013-02-07 18:07:00,16.2,11.3,30.56,SSW,207,0.0,4.0,81,0.00,,,0.00,meteohub,2013-02-08 01:07:00,
2013-02-07 18:12:00,16.0,11.1,30.56,SSW,207,2.0,3.0,81,0.00,,,0.00,meteohub,2013-02-08 01:12:00,
2013-02-07 18:17:00,14.9,9.5,30.57,SSW,205,0.0,3.0,79,0.00,,,0.00,meteohub,2013-02-08 01:17:00,
2013-02-07 18:22:00,14.4,9.7,30.57,SSW,205,0.0,3.0,81,0.00,,,0.00,meteohub,2013-02-08 01:22:00,
2013-02-07 18:27:00,14.2,10.0,30.57,SSW,205,1.0,3.0,83,0.00,,,0.00,meteohub,2013-02-08 01:27:00,
2013-02-07 18:32:00,14.4,10.8,30.57,SSW,205,0.0,3.0,85,0.00,,,0.00,meteohub,2013-02-08 01:32:00,
2013-02-07 18:37:00,14.0,9.5,30.57,SSW,205,1.0,4.0,82,0.00,,,0.00,meteohub,2013-02-08 01:37:00,
2013-02-07 18:42:00,13.8,9.9,30.57,SSW,205,0.0,4.0,84,0.00,,,0.00,meteohub,2013-02-08 01:42:00,
2013-02-07 18:47:00,13.6,9.5,30.58,SSW,205,1.0,4.0,83,0.00,,,0.00,meteohub,2013-02-08 01:47:00,
2013-02-07 18:52:00,13.5,9.9,30.58,SSW,205,1.0,2.0,85,0.00,,,0.00,meteohub,2013-02-08 01:52:00,
2013-02-07 18:57:00,13.5,9.9,30.58,SSW,205,0.0,3.0,85,0.00,,,0.00,meteohub,2013-02-08 01:57:00,
2013-02-07 19:02:00,13.3,9.3,30.59,SSW,205,0.0,3.0,84,0.00,,,0.00,meteohub,2013-02-08 02:02:00,
2013-02-07 19:07:00,12.7,8.8,30.59,SSW,205,1.0,3.0,84,0.00,,,0.00,meteohub,2013-02-08 02:07:00,
2013-02-07 19:12:00,12.9,10.0,30.59,SSW,205,0.0,2.0,88,0.00,,,0.00,meteohub,2013-02-08 02:12:00,
2013-02-07 19:22:00,12.6,8.6,30.60,SSW,205,0.0,5.0,84,0.00,,,0.00,meteohub,2013-02-08 02:22:00,
2013-02-07 19:27:00,12.0,7.9,30.60,SSE,161,1.0,5.0,83,0.00,,,0.00,meteohub,2013-02-08 02:27:00,
2013-02-07 19:32:00,11.3,7.9,30.60,SSE,161,2.0,5.0,86,0.00,,,0.00,meteohub,2013-02-08 02:32:00,
2013-02-07 19:42:00,10.2,6.6,30.60,SSE,161,0.0,5.0,85,0.00,,,0.00,meteohub,2013-02-08 02:42:00,
2013-02-07 19:47:00,10.0,7.0,30.60,SSE,161,0.0,2.0,87,0.00,,,0.00,meteohub,2013-02-08 02:47:00,
2013-02-07 19:52:00,9.9,6.8,30.60,SSE,161,0.0,2.0,87,0.00,,,0.00,meteohub,2013-02-08 02:52:00,
2013-02-07 19:57:00,9.9,7.3,30.61,SSE,161,0.0,2.0,89,0.00,,,0.00,meteohub,2013-02-08 02:57:00,
2013-02-07 20:02:00,9.9,7.3,30.61,SSE,161,0.0,2.0,89,0.00,,,0.00,meteohub,2013-02-08 03:02:00,
2013-02-07 20:07:00,9.7,6.6,30.60,SSE,161,0.0,1.0,87,0.00,,,0.00,meteohub,2013-02-08 03:07:00,
2013-02-07 20:12:00,9.7,7.2,30.61,SSE,161,1.0,1.0,89,0.00,,,0.00,meteohub,2013-02-08 03:12:00,
2013-02-07 20:17:00,9.1,6.3,30.61,SSE,161,1.0,2.0,88,0.00,,,0.00,meteohub,2013-02-08 03:17:00,
2013-02-07 20:22:00,8.8,5.7,30.61,SSE,161,0.0,2.0,87,0.00,,,0.00,meteohub,2013-02-08 03:22:00,
2013-02-07 20:27:00,8.8,6.3,30.61,SSE,161,0.0,2.0,89,0.00,,,0.00,meteohub,2013-02-08 03:27:00,
2013-02-07 20:32:00,8.4,5.5,30.61,SSE,161,0.0,2.0,88,0.00,,,0.00,meteohub,2013-02-08 03:32:00,
2013-02-07 20:42:00,7.9,4.8,30.61,SSE,161,0.0,2.0,87,0.00,,,0.00,meteohub,2013-02-08 03:42:00,
2013-02-07 20:47:00,7.2,3.9,30.61,SSE,161,0.0,1.0,86,0.00,,,0.00,meteohub,2013-02-08 03:47:00,
2013-02-07 20:52:00,7.2,4.6,30.61,SSE,161,0.0,1.0,89,0.00,,,0.00,meteohub,2013-02-08 03:52:00,
2013-02-07 20:57:00,7.2,4.6,30.61,SSE,161,0.0,0.0,89,0.00,,,0.00,meteohub,2013-02-08 03:57:00,
2013-02-07 21:07:00,7.3,5.0,30.61,SSE,161,0.0,1.0,90,0.00,,,0.00,meteohub,2013-02-08 04:07:00,
2013-02-07 21:12:00,6.4,3.4,30.61,SSE,166,0.0,3.0,87,0.00,,,0.00,meteohub,2013-02-08 04:12:00,
2013-02-07 21:17:00,6.1,3.4,30.61,SSE,166,0.0,3.0,88,0.00,,,0.00,meteohub,2013-02-08 04:17:00,
2013-02-07 21:22:00,5.5,2.5,30.62,SSE,166,1.0,3.0,87,0.00,,,0.00,meteohub,2013-02-08 04:22:00,
2013-02-07 21:27:00,5.2,2.7,30.62,ESE,122,0.0,2.0,89,0.00,,,0.00,meteohub,2013-02-08 04:27:00,
2013-02-07 21:32:00,4.8,2.3,30.62,South,189,1.0,2.0,89,0.00,,,0.00,meteohub,2013-02-08 04:32:00,
2013-02-07 21:37:00,4.1,1.0,30.62,South,189,2.0,5.0,87,0.00,,,0.00,meteohub,2013-02-08 04:37:00,
2013-02-07 21:42:00,4.1,1.6,30.62,South,189,0.0,5.0,89,0.00,,,0.00,meteohub,2013-02-08 04:42:00,
2013-02-07 21:47:00,3.7,1.0,30.62,South,186,0.0,5.0,88,0.00,,,0.00,meteohub,2013-02-08 04:47:00,
2013-02-07 21:52:00,3.9,1.6,30.62,South,186,1.0,3.0,90,0.00,,,0.00,meteohub,2013-02-08 04:52:00,
2013-02-07 22:02:00,4.6,1.2,30.62,SSE,166,1.0,2.0,85,0.00,,,0.00,meteohub,2013-02-08 05:02:00,
2013-02-07 22:07:00,3.4,-0.4,30.63,SSE,166,0.0,2.0,84,0.00,,,0.00,meteohub,2013-02-08 05:07:00,
2013-02-07 22:17:00,3.2,0.7,30.63,ESE,111,0.0,2.0,89,0.00,,,0.00,meteohub,2013-02-08 05:17:00,
2013-02-07 22:22:00,4.3,1.9,30.63,ESE,116,1.0,4.0,90,0.00,,,0.00,meteohub,2013-02-08 05:22:00,
2013-02-07 22:27:00,4.3,1.9,30.63,ESE,116,1.0,4.0,90,0.00,,,0.00,meteohub,2013-02-08 05:27:00,
2013-02-07 22:32:00,4.5,1.9,30.63,SSW,198,0.0,4.0,89,0.00,,,0.00,meteohub,2013-02-08 05:32:00,
2013-02-07 22:37:00,3.9,0.9,30.63,SSW,198,0.0,4.0,87,0.00,,,0.00,meteohub,2013-02-08 05:37:00,
2013-02-07 22:42:00,3.6,0.5,30.63,South,188,0.0,4.0,87,0.00,,,0.00,meteohub,2013-02-08 05:42:00,
2013-02-07 22:47:00,3.4,0.3,30.63,East,86,3.0,3.0,87,0.00,,,0.00,meteohub,2013-02-08 05:47:00,
2013-02-07 22:52:00,3.6,0.9,30.64,South,172,0.0,3.0,88,0.00,,,0.00,meteohub,2013-02-08 05:52:00,
2013-02-07 22:57:00,3.7,1.2,30.63,ESE,108,0.0,3.0,89,0.00,,,0.00,meteohub,2013-02-08 05:57:00,
2013-02-07 23:02:00,3.7,1.0,30.63,North,5,0.0,3.0,88,0.00,,,0.00,meteohub,2013-02-08 06:02:00,
2013-02-07 23:07:00,3.7,1.2,30.64,North,5,0.0,3.0,89,0.00,,,0.00,meteohub,2013-02-08 06:07:00,
2013-02-07 23:12:00,3.6,0.5,30.64,West,268,1.0,3.0,87,0.00,,,0.00,meteohub,2013-02-08 06:12:00,
2013-02-07 23:17:00,3.2,0.1,30.64,North,355,2.0,4.0,87,0.00,,,0.00,meteohub,2013-02-08 06:17:00,
2013-02-07 23:22:00,3.2,0.5,30.64,East,84,0.0,4.0,88,0.00,,,0.00,meteohub,2013-02-08 06:22:00,
2013-02-07 23:27:00,4.5,2.5,30.64,WNW,286,0.0,5.0,91,0.00,,,0.00,meteohub,2013-02-08 06:27:00,
2013-02-07 23:32:00,3.9,0.9,30.64,WSW,252,0.0,5.0,87,0.00,,,0.00,meteohub,2013-02-08 06:32:00,
2013-02-07 23:37:00,2.5,-1.3,30.64,ENE,66,1.0,5.0,84,0.00,,,0.00,meteohub,2013-02-08 06:37:00,
2013-02-07 23:42:00,2.1,-0.9,30.64,ENE,66,0.0,4.0,87,0.00,,,0.00,meteohub,2013-02-08 06:42:00,
2013-02-07 23:47:00,2.8,0.3,30.65,SE,130,0.0,4.0,89,0.00,,,0.00,meteohub,2013-02-08 06:47:00,
2013-02-07 23:52:00,3.0,0.5,30.65,SE,130,0.0,3.0,89,0.00,,,0.00,meteohub,2013-02-08 06:52:00,
2013-02-07 23:57:00,3.0,0.0,30.65,SE,130,0.0,2.0,87,0.00,,,0.00,meteohub,2013-02-08 06:57:00,